Flag for U.S.A. Weather past 2 weeks in Fort Collins, Colorado, U.S.A.

Now
81 °F

Sunny.


Feels Like: 80 °F
Forecast: 51 / 84 °F
Wind: 7 mph from Northwest

Location: Fort Collins-Loveland Municipal Airport

Current Time: Jul 29, 2015 at 2:58:45 PM

Latest Report: Jul 29, 2015 at 2:35 PM


Visibility: 10 mi

Pressure: 30.25 "Hg (25.44 "Hg at 1522m altitude)

Humidity: 37%

Dew point: 52 °F

Location of Fort CollinsLocation

Historic Weather in Fort Collins — Graph

°F

Fort Collins temperature yesterday

Maximum temperature yesterday: 86 °F (at 3:55 PM)
Minimum temperature yesterday: 59 °F (at 5:55 AM)
Average temperature yesterday: 73 °F

Past Weeks' High & Low Weather Summary

 TemperatureHumidityPressure
High97 °F (Jul 27, 4:55 PM)94% (Jul 16, 4:35 AM)30.34 "Hg (Jul 16, 4:35 AM)
Low54 °F (Jul 16, 5:15 AM)15% (Jul 17, 1:35 PM)29.76 "Hg (Jul 27, 6:15 PM)
Average72 °F50%30.08 "Hg
* Reported Jul 14 1:15 PM — Jul 29 1:35 PM, Fort Collins, Weather by CustomWeather, © 2015

Note: Actual official high and low records may vary slightly from our data, if they occured in-between our weather recording intervals... More about our weather records

Advertising

Fort Collins weather history for previous 24 hours

 ConditionsComfort  
Time TempWeatherWind HumidityBarometerVisibility
1:35 PM
Wed, Jul 29
79 °FSunny.8 mph37%30.27 "Hg10 mi
1:15 PM79 °FSunny.7 mph34%30.28 "Hg10 mi
12:55 PM77 °FSunny.No wind36%30.29 "Hg10 mi
12:35 PM75 °FSunny.7 mph39%30.29 "Hg10 mi
12:15 PM75 °FSunny.8 mph39%30.30 "Hg10 mi
11:55 AM75 °FSunny.3 mph39%30.31 "Hg10 mi
11:35 AM73 °FSunny.7 mph41%30.31 "Hg10 mi
11:15 AM73 °FSunny.8 mph38%30.31 "Hg10 mi
10:55 AM73 °FSunny.5 mph38%30.31 "Hg10 mi
10:35 AM70 °FSunny.6 mph43%30.32 "Hg10 mi
10:15 AM70 °FSunny.5 mph43%30.32 "Hg10 mi
9:55 AM68 °FSunny.5 mph43%30.32 "Hg10 mi
9:35 AM66 °FSunny.3 mph46%30.33 "Hg10 mi
9:15 AM64 °FSunny.7 mph49%30.33 "Hg10 mi
8:55 AM64 °FSunny.7 mph49%30.33 "Hg10 mi
8:35 AM63 °FSunny.9 mph49%30.34 "Hg10 mi
8:15 AM63 °FSunny.9 mph49%30.34 "Hg10 mi
7:55 AM61 °FSunny.10 mph48%30.34 "Hg10 mi
7:35 AM59 °FSunny.8 mph51%30.33 "Hg10 mi
7:15 AM57 °FSunny.7 mph59%30.33 "Hg10 mi
6:55 AM55 °FSunny.6 mph63%30.33 "Hg10 mi
6:35 AM55 °FClear.8 mph63%30.33 "Hg10 mi
6:15 AM55 °FClear.8 mph63%30.33 "Hg10 mi
5:55 AM55 °FClear.8 mph67%30.32 "Hg10 mi
5:35 AM54 °FClear.7 mph72%30.31 "Hg10 mi
5:15 AM57 °FClear.7 mph63%30.31 "Hg10 mi
4:55 AM57 °FClear.6 mph59%30.31 "Hg10 mi
4:35 AM57 °FClear.6 mph59%30.30 "Hg10 mi
4:15 AM61 °FClear.3 mph52%30.30 "Hg10 mi
3:55 AM61 °FClear.3 mph52%30.30 "Hg10 mi
3:35 AM61 °FClear.3 mph55%30.29 "Hg10 mi
3:15 AM57 °FClear.No wind63%30.29 "Hg10 mi
2:55 AM61 °FClear.No wind52%30.29 "Hg10 mi
2:35 AM61 °FClear.6 mph52%30.28 "Hg10 mi
2:15 AM63 °FClear.5 mph49%30.28 "Hg10 mi
1:35 AM64 °FClear.5 mph46%30.28 "Hg10 mi
1:15 AM64 °FClear.6 mph40%30.28 "Hg10 mi
12:55 AM64 °FClear.No wind40%30.29 "Hg10 mi
12:35 AM66 °FClear.3 mph35%30.29 "Hg10 mi
12:15 AM66 °FClear.5 mph35%30.29 "Hg10 mi
11:55 PM
Tue, Jul 28
68 °FClear.7 mph33%30.29 "Hg10 mi
11:35 PM68 °FClear.8 mph33%30.29 "Hg10 mi
11:15 PM70 °FClear.6 mph29%30.29 "Hg10 mi
10:55 PM72 °FPassing clouds.5 mph29%30.29 "Hg10 mi
10:35 PM70 °FPassing clouds.5 mph31%30.29 "Hg10 mi
9:55 PM73 °FPassing clouds.3 mph27%30.26 "Hg10 mi
9:15 PM73 °FPartly sunny.10 mph27%30.23 "Hg10 mi
8:55 PM75 °FScattered clouds.12 mph25%30.21 "Hg10 mi
8:35 PM75 °FScattered clouds.12 mph25%30.20 "Hg10 mi
8:15 PM75 °FScattered clouds.15 mph27%30.17 "Hg10 mi
7:55 PM79 °FScattered clouds.15 mph24%30.16 "Hg10 mi
7:35 PM81 °FSunny.12 mph24%30.15 "Hg10 mi
6:55 PM82 °FSunny.17 mph25%30.12 "Hg10 mi
6:35 PM82 °FSunny.14 mph25%30.11 "Hg10 mi
6:15 PM84 °FSunny.9 mph23%30.11 "Hg10 mi
5:55 PM84 °FSunny.12 mph23%30.10 "Hg10 mi
5:35 PM84 °FSunny.12 mph23%30.10 "Hg10 mi
5:15 PM86 °FSunny.10 mph22%30.10 "Hg10 mi
4:55 PM86 °FSunny.6 mph22%30.10 "Hg10 mi
4:35 PM86 °FSunny.8 mph22%30.11 "Hg10 mi
4:15 PM86 °FSunny.8 mph22%30.11 "Hg10 mi
3:55 PM86 °FSunny.7 mph24%30.11 "Hg10 mi
3:35 PM84 °FSunny.9 mph23%30.11 "Hg10 mi
3:15 PM84 °FSunny.14 mph23%30.11 "Hg10 mi
2:55 PM84 °FSunny.14 mph25%30.12 "Hg10 mi
2:35 PM82 °FSunny.8 mph25%30.12 "Hg10 mi
2:15 PM84 °FSunny.10 mph25%30.12 "Hg10 mi
Weather by CustomWeather, © 2015

See weather overviewHow to use our weather pages